Other Surface Observations
Issued by NWS Charleston, SC

Current Version | Previous Version | Text Only | Print | Product List | Glossary On
Versions: 1 2 3 4 5 6 7 8 9 10 11 12 13 14 15 16 17 18 19 20 21 22 23 24 25 26 27 28 29 30 31 32 33 34 35 36 37 38 39 40 41 42 43 44 45 46 47 48 49 50
000
SXUS52 KCHS 022327
OSOCHS

MARINE OBSERVATIONS
NATIONAL WEATHER SERVICE CHARLESTON SC
700 PM EDT WED SEP 02 2015

...DOWNTOWN CHARLESTON AND HARBOR...

CITY           SKY/WX    TMP DP  RH WIND       PRES   REMARKS
WATERFRONT PRK   N/A     83  78  84 SW7       29.95F HX  93

...LAKE MOULTRIE...

CITY           SKY/WX    TMP DP  RH WIND       PRES   REMARKS
PINOPOLIS        N/A     91  75  59 VRB3      29.90F HX 102

...LAKE AND SUPPLEMENTAL COASTAL OBSERVATIONS...

STATION/POSITION TIME  TEMP    WIND        PRES    WAVE   SWELL
                       AIR SEA DIR/SP/G            HT/PER HT/PER/DIR
                 (UTC) (F)     (DEG/KT/KT) (MB)    (FT/S) (FT/S/D)
FORT PULASKI     2300   79 83  250/  1/  2 1015.9F
SAPELO ISLAND    2300   75     100/  2     1015.0F
UPR LAKE MARION  NOT AVBL
WINYAH BAY       2200   85     190/  7     1014.0
LAKE MURRAY      2300   87     210/  2/  3 1013.9S
ACE BASIN NERRS  NOT AVBL


...C-MAN AND BUOY OBSERVATIONS...

STATION/POSITION TIME  TEMP    WIND        PRES    WAVE   SWELL
                       AIR SEA DIR/SP/G            HT/PER HT/PER/DIR
                 (UTC) (F)     (DEG/KT/KT) (MB)    (FT/S) (FT/S/D)
BUOY 41004       2250   82 84  240/  6/  8 1015.0F   2/ 8   2/ 8
BUOY 41008       2250   80 84  100/  8/  8 1015.6F   2/ 9   2/ 90/ 9
FOLLY BEACH CMAN 2300   82     230/  5/  7 1015.4F
CAPERS NS BUOY   2208   83     220/  8/ 12 1015.4F
FRIPP NS BUOY    2200   81     250/  8/  8 1015.3F
5E ST. MARYS GA  2221      86                N/A     2/ 9


STATION/POSITION TIME  TEMP    WIND        PRES    WAVE   SWELL
                       AIR SEA DIR/SP/G            HT/PER HT/PER/DIR
                 (UTC) (F)     (DEG/KT/KT) (MB)    (FT/S) (FT/S/D)
FRYING PAN BUOY  2250   83 82  230/ 10/ 10 1015.0F   2/ 6   2/130/ 6
BUOY 41025       2250   82 86  310/  2/  4 1014.3F   2/ 6   2/ 60/ 6
CAPE LOOKOUT NC  2300   82     180/  4/  5 1014.1F
BUOY 41002       2250   83 84  280/  8/ 10 1014.9F   2/13   2/ 50/13
BUOY 41010       2220   88 88     CALM     1015.9F
ST AUGUSTINE FL  2300   80 85  190/ 10/ 11 1016.0F

$$



USA.gov is the U.S. government's official web portal to all federal, state and local government web resources and services.